Regional Weather Roundup
Issued by NWS

Home | Current Version | Previous Version | Graphics & Text | Print | Product List | Glossary Off
Versions: 1 2 3 4 5 6 7 8 9 10 11 12 13 14 15 16 17 18 19 20 21 22 23 24 25 26 27 28 29 30 31 32 33 34 35 36 37 38 39 40 41 42 43 44 45 46 47 48 49 50

000
ASUS43 KFSD 312202
RWRSD

WEATHER ROUNDUP FOR SOUTH DAKOTA
NATIONAL WEATHER SERVICE SIOUX FALLS SD
500 PM CDT THU JUL 31 2014

NOTE: "FAIR" INDICATES FEW OR NO CLOUDS BELOW 12,000 FEET WITH NO
SIGNIFICANT WEATHER AND/OR OBSTRUCTIONS TO VISIBILITY.


SDZ001>005-009-010-012>017-312300-
NORTHWEST AND NORTH CENTRAL SOUTH DAKOTA

CITY           SKY/WX    TMP DP  RH WIND       PRES   REMARKS
BUFFALO          N/A     84  47  27 N6        30.05S
FAITH            N/A     87  47  24 N15       30.08F
MOBRIDGE       SUNNY     86  49  27 NE5       30.03F
$$

SDZ012>016-024>037-041>051-057-063-072>074-312300-
SOUTHWEST AND SOUTH CENTRAL SOUTH DAKOTA

CITY           SKY/WX    TMP DP  RH WIND       PRES   REMARKS
RAPID CTY ARPT SUNNY     88  47  24 N7        30.12F
PIERRE         SUNNY     87  47  24 NW9       30.03F
CUSTER         CLOUDY    71  46  40 NE13      30.30R THUNDER
ELLSWORTH AFB  SUNNY     87  45  23 N8        30.12F
PHILIP         SUNNY     91  48  22 N9        30.04F
PINE RIDGE     SUNNY     86  48  26 N6        30.14F
WINNER         MOCLDY    86  51  29 VRB7      30.05F
$$

SDZ004>011-016>023-039-040-312300-
NORTHEAST SOUTH DAKOTA

CITY           SKY/WX    TMP DP  RH WIND       PRES   REMARKS
ABERDEEN       SUNNY     80  52  37 NE8       30.05S
WATERTOWN      MOSUNNY   79  53  40 NW9       30.06F
SISSETON         N/A     81  57  43 N7        30.03F
$$

SDZ017-020-022-023-036>040-048>070-312300-
SOUTHEAST SOUTH DAKOTA

CITY           SKY/WX    TMP DP  RH WIND       PRES   REMARKS
SIOUX FALLS    MOSUNNY   79  59  50 W7        30.05F
HURON          SUNNY     82  53  36 CALM      30.04S
CHAMBERLAIN    PTSUNNY   84  57  39 E8        30.04F
MITCHELL       PTSUNNY   80  63  55 NE5       30.04F
YANKTON        PTSUNNY   73  57  56 E10       30.06F
$$

ABBREVIATIONS USED IN REMARKS
   TC - TEMPERATURE IN CELSIUS
  WCI - WIND CHILL INDEX
   HX - HEAT INDEX
  VSB - VISIBILITY



USA.gov is the U.S. government's official web portal to all federal, state and local government web resources and services.